FW7772 Weather Reports


Display with metric or nautical units.
time (UTC)temp
F
wind
direction
speed
MPH
gust
MPH
rain 1hr
in
rain 24hr
in
rain mn
in
humidity
%
barometer
mb
20260505130154 43 351 3.0 9.0 0.00 0.09 0.00 50 1007.9
20260505124154 43 18 9.0 20.0 0.00 0.09 0.00 49 1008.1
20260505123155 46 346 12.0 19.0 0.00 0.09 0.00 41 1008.1
20260505122152 45 270 11.0 20.0 0.00 0.09 0.00 39 1008.1
20260505121152 43 290 14.0 24.0 0.00 0.09 0.00 39 1008.1
20260505120632 44 287 8.0 14.0 0.00 0.09 0.00 40 1008.0
20260505115152 44 266 5.0 10.0 0.00 0.09 0.00 41 1007.8
20260505114152 44 237 4.0 10.0 0.00 0.09 0.00 40 1007.7
20260505113145 45 300 8.0 13.0 0.00 0.09 0.00 43 1007.7
20260505112146 44 310 14.0 26.0 0.00 0.09 0.00 39 1007.9
20260505111146 46 295 10.0 16.0 0.00 0.09 0.00 39 1007.5
20260505110146 44 291 11.0 17.0 0.00 0.09 0.00 43 1007.6
20260505102146 47 253 9.0 16.0 0.00 0.09 0.00 38 1007.4
20260505101146 46 249 8.0 13.0 0.00 0.09 0.00 42 1007.4
20260505100625 44 305 12.0 19.0 0.00 0.09 0.00 44 1007.6
20260505095145 42 283 12.0 17.0 0.00 0.09 0.00 45 1007.6
20260505094146 45 300 9.0 16.0 0.00 0.09 0.00 44 1007.3
20260505093631 43 289 11.0 21.0 0.00 0.09 0.00 48 1007.6
20260505092146 45 300 8.0 14.0 0.00 0.09 0.00 51 1007.5
20260505091146 43 290 9.0 17.0 0.00 0.09 0.00 47 1007.4
20260505090623 43 245 9.0 17.0 0.00 0.09 0.00 49 1007.3
20260505085141 44 324 8.0 17.0 0.00 0.09 0.00 50 1007.4
20260505084140 44 276 7.0 14.0 0.00 0.09 0.00 50 1007.1
20260505083141 42 285 6.0 13.0 0.00 0.09 0.00 52 1007.0
20260505082139 41 272 9.0 15.0 0.00 0.09 0.00 51 1007.0
20260505081139 41 316 10.0 15.0 0.00 0.09 0.00 49 1006.7
20260505080140 41 278 10.0 17.0 0.00 0.09 0.00 49 1006.7
20260505075139 41 328 11.0 18.0 0.00 0.09 0.00 49 1006.6
20260505074139 42 315 9.0 18.0 0.00 0.09 0.00 50 1006.6
20260505073617 42 322 5.0 15.0 0.00 0.09 0.00 53 1006.5
20260505072133 41 21 9.0 16.0 0.00 0.09 0.00 56 1006.6
20260505071133 40 330 7.0 12.0 0.00 0.09 0.00 57 1006.5
20260505070133 40 319 8.0 14.0 0.00 0.09 0.00 59 1006.4
20260505065133 39 358 8.0 15.0 0.00 0.09 0.00 62 1006.4
20260505064133 39 330 7.0 13.0 0.00 0.09 0.00 64 1006.4
20260505063134 38 327 7.0 14.0 0.00 0.09 0.00 64 1006.3
20260505062131 37 314 7.0 15.0 0.00 0.09 0.00 67 1006.2
20260505061130 37 1 7.0 14.0 0.00 0.09 0.00 70 1006.1
20260505061059 36 359 8.0 14.0 0.00 0.09 0.00 72 1006.1
20260505055131 35 277 6.0 10.0 0.00 0.09 0.00 73 1005.9
20260505054132 35 288 7.0 13.0 0.00 0.09 0.00 77 1005.9
20260505053132 34 305 6.0 11.0 0.00 0.09 0.00 78 1005.9
20260505052613 34 293 5.0 10.0 0.00 0.09 0.00 80 1005.7
20260505051130 33 278 6.0 12.0 0.00 0.09 0.00 81 1005.6
20260505050131 33 255 6.0 11.0 0.00 0.09 0.00 82 1005.5
20260505041129 31 269 4.0 8.0 0.00 0.09 0.00 87 1005.3
20260505040129 30 293 4.0 7.0 0.00 0.09 0.00 87 1005.3
20260505035129 30 296 4.0 6.0 0.00 0.09 0.00 88 1005.2
20260505034129 30 300 4.0 7.0 0.00 0.09 0.00 89 1005.2
20260505033129 29 280 5.0 8.0 0.00 0.09 0.00 89 1005.2
20260505032129 29 274 5.0 9.0 0.00 0.09 0.00 89 1005.1
20260505031607 29 277 6.0 9.0 0.00 0.09 0.00 90 1005.1
20260505030603 29 281 5.0 9.0 0.00 0.09 0.00 90 1005.1
20260505025128 29 246 3.0 5.0 0.00 0.09 0.00 89 1005.0
20260505024128 29 243 1.0 3.0 0.00 0.09 0.00 90 1005.0
20260505023128 30 325 1.0 4.0 0.00 0.09 0.00 90 1005.0
20260505022129 30 272 5.0 9.0 0.00 0.09 0.00 89 1004.8
20260505021129 30 266 4.0 8.0 0.00 0.09 0.00 89 1004.8
20260505020605 30 300 3.0 5.0 0.00 0.09 0.00 89 1004.8
20260505015128 30 247 1.0 4.0 0.00 0.09 0.00 89 1004.8
20260505014609 31 289 1.0 3.0 0.00 0.09 0.00 89 1004.7
20260505013128 31 291 3.0 8.0 0.00 0.09 0.00 89 1004.7
20260505012129 31 260 3.0 5.0 0.00 0.09 0.00 89 1004.4
20260505011129 31 267 3.0 6.0 0.00 0.09 0.00 89 1004.3
20260505010129 32 283 4.0 6.0 0.00 0.09 0.00 89 1004.4
20260505005128 32 305 3.0 5.0 0.00 0.09 0.00 89 1004.4
20260505004123 32 300 3.0 5.0 0.00 0.09 0.00 89 1004.3
20260505003606 33 285 2.0 3.0 0.00 0.09 0.00 89 1004.3
20260505002122 33 287 3.0 6.0 0.00 0.09 0.00 90 1004.2
20260505001122 33 296 5.0 9.0 0.00 0.09 0.00 90 1004.1
20260505000610 33 305 7.0 10.0 0.00 0.09 0.00 90 1003.8
20260504235123 33 300 5.0 8.0 0.00 0.09 0.00 90 1003.8
20260504234124 34 305 5.0 6.0 0.00 0.09 0.00 90 1003.8
20260504233120 34 292 5.0 8.0 0.00 0.09 0.00 90 1003.8
20260504232114 35 282 4.0 6.0 0.00 0.09 0.00 90 1003.7
20260504231115 35 289 5.0 8.0 0.00 0.09 0.00 90 1003.8
20260504230115 35 268 3.0 5.0 0.00 0.09 0.00 90 1003.8
20260504230046 35 275 4.0 8.0 0.00 0.09 0.00 90 1003.9
20260504224113 35 305 7.0 10.0 0.00 0.09 0.00 89 1003.8
20260504223113 34 293 7.0 11.0 0.00 0.09 0.00 89 1003.8
20260504222112 35 258 5.0 10.0 0.00 0.09 0.00 88 1003.7
20260504221112 35 278 4.0 9.0 0.01 0.09 0.00 87 1003.6
20260504220112 35 253 2.0 5.0 0.01 0.09 0.00 87 1003.4
20260504215111 36 236 1.0 2.0 0.03 0.09 0.09 87 1003.2
20260504214545 36 236 1.0 3.0 0.04 0.09 0.09 87 1003.4
20260504213110 36 236 1.0 3.0 0.05 0.09 0.09 87 1003.4
20260504212111 36 243 1.0 3.0 0.06 0.09 0.09 87 1003.3
20260504211111 36 295 4.0 8.0 0.06 0.09 0.09 86 1003.1
20260504210111 37 300 4.0 7.0 0.07 0.09 0.08 86 1003.1
20260504205111 37 352 2.0 6.0 0.06 0.06 0.06 86 1003.1
20260504204110 37 310 4.0 9.0 0.05 0.06 0.06 85 1003.2
20260504203110 38 272 4.0 8.0 0.04 0.05 0.05 84 1003.3
20260504202111 38 280 4.0 9.0 0.03 0.03 0.03 84 1003.2
20260504201111 38 300 3.0 5.0 0.02 0.02 0.02 83 1003.1
20260504200111 39 251 5.0 9.0 0.02 0.02 0.02 82 1003.3
20260504195110 39 300 7.0 11.0 0.01 0.01 0.01 81 1003.0
20260504194544 40 300 8.0 11.0 0.01 0.01 0.01 80 1002.9
20260504193107 41 319 9.0 13.0 0.01 0.01 0.00 77 1002.8
20260504192106 42 323 12.0 17.0 0.00 0.00 0.00 74 1002.7
20260504191106 43 317 15.0 23.0 0.00 0.00 0.00 69 1002.4
20260504190551 44 338 13.0 20.0 0.00 0.00 0.00 61 1002.3
20260504185106 45 344 11.0 19.0 0.00 0.00 0.00 57 1002.0
20260504184546 45 310 10.0 16.0 0.00 0.00 0.00 55 1001.9
20260504184035 45 325 10.0 16.0 0.00 0.00 0.00 55 1002.0
20260504182549 46 332 8.0 15.0 0.00 0.00 0.00 54 1002.0
20260504181545 46 331 10.0 21.0 0.00 0.00 0.00 52 1001.9
20260504180106 47 345 14.0 23.0 0.00 0.00 0.00 49 1001.8
20260504175106 48 343 8.0 16.0 0.00 0.00 0.00 48 1001.5
20260504174107 49 341 9.0 15.0 0.00 0.00 0.00 45 1001.7
20260504173546 49 331 14.0 23.0 0.00 0.00 0.00 45 1001.9
20260504172103 50 354 12.0 21.0 0.00 0.00 0.00 41 1002.0
20260504171102 51 335 13.0 24.0 0.00 0.00 0.00 40 1001.9
20260504170540 52 284 15.0 27.0 0.00 0.00 0.00 38 1001.8
20260504151102 55 320 12.0 17.0 0.00 0.00 0.00 24 1000.7